Location: Albany
(35.0000°S, 118.0000°E)
Time: 22:03:17
(UTC-04:00)

Cosmos 1933 - Visible Passes

Search period start: 27 April 2015 00:00
Search period end: 07 May 2015 00:00
Orbit: 551 x 570 km, 82.5° (Epoch: 26 April)

Date Brightness Start Highest point End Pass type
(mag) Time Alt. Az. Time Alt. Az. Time Alt. Az.
27 Apr 3.5 06:15:25 10° S 06:19:30 52° E 06:23:30 10° NNE visible
28 Apr 3.3 06:14:22 10° S 06:18:31 65° E 06:22:35 10° NNE visible
29 Apr 3.3 06:13:21 10° S 06:17:31 80° E 06:21:37 10° N visible
30 Apr 3.5 06:12:21 10° S 06:16:31 84° W 06:20:36 10° N visible
01 May 3.8 06:11:23 10° SSW 06:15:31 68° W 06:19:33 10° N visible
02 May 4.2 06:10:25 10° SSW 06:14:30 55° W 06:18:28 10° N visible
03 May 4.7 06:09:29 10° SSW 06:13:28 44° W 06:17:21 10° NNW visible
04 May 5.2 06:08:36 10° SSW 06:12:26 36° W 06:16:10 10° NNW visible
05 May 5.6 06:07:44 10° SSW 06:11:23 30° W 06:14:55 10° NNW visible
06 May 6.0 06:06:55 10° SW 06:10:20 25° W 06:13:38 10° NW visible
06 May 6.9 16:51:15 10° E 16:52:14 11° E 16:53:29 10° ESE visible
